Flag Weather past 2 weeks in Chur, Graubünden, Switzerland

Now
49 °F

Passing clouds.


Feels Like: 49 °F
Forecast: 45 / 58 °F
Wind: 3 mph from South

Location: Chur-Ems

Current Time: Nov 28, 2014 at 11:01:19 AM

Latest Report: Nov 28, 2014 at 10:00 AM


Visibility: 19 mi

Pressure: 29.83 "Hg

Humidity: 68%

Dew point: 39 °F

Location of ChurLocation

Historic Weather in Chur — Graph

°F

Chur temperature yesterday

Maximum temperature yesterday: 60 °F (at 3:00 PM)
Minimum temperature yesterday: 43 °F (at 8:00 PM)
Average temperature yesterday: 48 °F

Past Weeks' High & Low Weather Summary

 TemperatureHumidityPressure
High63 °F (Nov 14, 3:00 PM)97% (Nov 25, 5:00 AM)30.36 "Hg (Nov 25, 5:00 AM)
Low37 °F (Nov 20, 4:00 AM)40% (Nov 20, 2:00 PM)29.56 "Hg (Nov 15, 8:00 PM)
Average47 °F74%29.98 "Hg
* Reported Nov 13 9:00 AM — Nov 28 9:00 AM, Chur, Weather by CustomWeather, © 2014

Note: Actual official high and low records may vary slightly from our data, if they occured in-between our weather recording intervals... More about our weather records

Advertising

Chur weather history for previous 24 hours

 ConditionsComfort  
Time TempWeatherWind HumidityBarometerVisibility
9:00 AM
Nov 28
48 °FCool.2 mph66%29.83 "HgN/A
8:00 AM46 °FCool.2 mph72%29.83 "HgN/A
7:00 AM48 °FPassing clouds.1 mph66%29.82 "Hg16 mi
6:00 AM46 °FCool.1 mph71%29.82 "HgN/A
5:00 AM46 °FCool.3 mph69%29.81 "HgN/A
4:00 AM47 °FFog.3 mph67%29.81 "Hg7 mi
3:00 AM48 °FCool.9 mph66%29.81 "HgN/A
2:00 AM49 °FCool.8 mph63%29.81 "HgN/A
1:00 AM49 °FFog.8 mph63%29.82 "Hg7 mi
12:00 AM52 °FCool.8 mph56%29.80 "HgN/A
11:00 PM
Nov 27
51 °FCool.6 mph59%29.82 "HgN/A
10:00 PM50 °FFog.8 mph62%29.82 "Hg7 mi
9:00 PM44 °FQuite cool.1 mph83%29.84 "HgN/A
8:00 PM43 °FQuite cool.5 mph90%29.82 "HgN/A
7:00 PM43 °FPassing clouds.2 mph92%29.81 "Hg9 mi
6:00 PM43 °FQuite cool.7 mph93%29.81 "HgN/A
5:00 PM44 °FQuite cool.12 mph89%29.79 "HgN/A
4:00 PM49 °FScattered clouds.8 mph76%29.75 "Hg16 mi
3:00 PM60 °FRefreshingly cool.7 mph42%29.71 "HgN/A
2:00 PM58 °FRefreshingly cool.7 mph51%29.72 "HgN/A
1:00 PM55 °FPartly sunny.6 mph57%29.74 "Hg19 mi
12:00 PM55 °FCool.7 mph58%29.76 "HgN/A
11:00 AM51 °FCool.2 mph60%29.80 "HgN/A
Weather by CustomWeather, © 2014

See weather overviewHow to use our weather pages